Regional Weather Roundup
Issued by NWS

Home | Current Version | Previous Version | Graphics & Text | Print | Product List | Glossary On
Versions: 1 2 3 4 5 6 7 8 9 10 11 12 13 14 15 16 17 18 19 20 21 22 23 24 25 26 27 28 29 30 31 32 33 34 35 36 37 38 39 40 41 42 43 44 45 46 47 48 49 50
000
ASUS44 KMEG 261000
RWRTN
TENNESSEE HOURLY STATE WEATHER ROUNDUP
NATIONAL WEATHER SERVICE MEMPHIS TN
500 AM CDT FRI AUG 26 2016

TNZ002-004-019-021-049-052-054-088>092-261100-
WEST TENNESSEE

CITY           SKY/WX    TMP DP  RH WIND       PRES   REMARKS
MEMPHIS INTL   FAIR      77  73  87 CALM      30.05S
NWS MEMPHIS      N/A     75 N/A N/A MISG        N/A
JACKSON        FAIR      74  74 100 SE3       30.06S
DYERSBURG      FAIR      81  72  74 MISG      30.06S
UNION CITY     CLEAR     73  73 100 CALM      30.06S
PARIS          CLEAR     72  72 100 CALM      30.08S
LEXINGTON      CLEAR     73  73 100 CALM      30.06S
$$

TNZ008-025-027-028-033-062-065-066-261100-
NORTH MIDDLE TENNESSEE

CITY           SKY/WX    TMP DP  RH WIND       PRES   REMARKS
NASHVILLE      FAIR      76  74  93 NE3       30.10S
CLARKSVILLE    FOG       73  72  96 CALM      30.09S VSB 1/4
COOKEVILLE     CLEAR     70  70 100 CALM      30.12S
CROSSVILLE     FAIR      68  67  96 CALM      30.18F FOG
$$

TNZ061-075-076-078-094-096-097-261100-
SOUTH MIDDLE TENNESSEE

CITY           SKY/WX    TMP DP  RH WIND       PRES   REMARKS
TULLAHOMA      CLEAR     72  70  94 CALM      30.13S
WINCHESTER     CLEAR     72  70  94 CALM      30.12S
MCMINNVILLE    CLOUDY    72  72 100 CALM      30.13S VSB 1/4
COLUMBIA       CLEAR    N/A N/A N/A CALM      30.07F
SHELBYVILLE    CLEAR     73  73 100 SE3       30.11S
$$

TNZ017-018-042-046-047-261100-
NORTHEAST TENNESSEE

CITY           SKY/WX    TMP DP  RH WIND       PRES   REMARKS
TRI CITIES     FAIR      68  67  96 CALM      30.18S FOG
$$

TNZ012-013-036-069-073-074-261100-
CENTRAL EAST TENNESSEE

CITY           SKY/WX    TMP DP  RH WIND       PRES   REMARKS
KNOXVILLE      FAIR      74  71  91 CALM      30.13R
OAK RIDGE      FOG       73  71  93 CALM      30.15S VSB 1/4
GATLINBURG     CLEAR     68  66  94 CALM      30.14S
$$

TNZ083-085-099-261100-
SOUTHEAST TENNESSEE

CITY           SKY/WX    TMP DP  RH WIND       PRES   REMARKS
CHATTANOOGA    FAIR      75  71  87 W3        30.11S
$$

SKY/WX REPORTED AS FAIR MEANS FEW OR NO CLOUDS BELOW
12 THOUSAND FEET.





USA.gov is the U.S. government's official web portal to all federal, state and local government web resources and services.